This is the latest recevied weather packets stored in our database for station/object DB0RV-13. If no packets are shown the sender has not sent any weather packets the latest 1 day(s).
| Time | Temp. | Humidity | Pressure | Rain* | Wind** | Luminosity | Snow |
|---|---|---|---|---|---|---|---|
| 1777987802 | 16.11° C | 69% | 1007.3 hPa | - | 0.89 m/s, 246° | - | - |
| 1777987501 | 16.11° C | 69% | 1007.3 hPa | - | 0.89 m/s, 224° | - | - |
| 1777987202 | 16.11° C | 69% | 1007.3 hPa | - | 0.89 m/s, 203° | - | - |
| 1777986903 | 15.56° C | 71% | 1007.4 hPa | - | 0 m/s | - | - |
| 1777986602 | 15.56° C | 70% | 1007.4 hPa | - | 1.79 m/s, 187° | - | - |
| 1777986301 | 15.56° C | 71% | 1007.4 hPa | - | 1.34 m/s, 123° | - | - |
| 1777986002 | 15° C | 72% | 1007.5 hPa | - | 0.45 m/s, 141° | - | - |
| 1777985701 | 15° C | 72% | 1007.5 hPa | - | 2.24 m/s, 174° | - | - |
| 1777985402 | 15° C | 71% | 1007.5 hPa | - | 1.79 m/s, 159° | - | - |
| 1777985101 | 15° C | 71% | 1007.4 hPa | - | 0 m/s | - | - |
| 1777984801 | 15.56° C | 73% | 1007.5 hPa | - | 1.34 m/s, 191° | - | - |
| 1777984502 | 15.56° C | 71% | 1007.6 hPa | - | 0.45 m/s, 189° | - | - |
| 1777984201 | 15° C | 73% | 1007.6 hPa | - | 0.89 m/s, 179° | - | - |
| 1777983902 | 14.44° C | 72% | 1007.6 hPa | - | 1.79 m/s, 181° | - | - |
| 1777983602 | 15° C | 73% | 1007.6 hPa | - | 1.79 m/s, 165° | - | - |
| 1777983302 | 15° C | 71% | 1007.6 hPa | - | 0.89 m/s, 152° | - | - |
| 1777983001 | 15° C | 71% | 1007.6 hPa | - | 0.89 m/s, 312° | - | - |
| 1777982702 | 14.44° C | 73% | 1007.6 hPa | - | 0.89 m/s, 25° | - | - |
| 1777982401 | 14.44° C | 73% | 1007.6 hPa | - | 1.79 m/s, 38° | - | - |
| 1777982102 | 14.44° C | 73% | 1007.8 hPa | - | 1.79 m/s, 27° | - | - |
| 1777981801 | 13.89° C | 76% | 1007.7 hPa | - | 0 m/s | - | - |
| 1777981501 | 13.89° C | 76% | 1007.8 hPa | - | 0.89 m/s, 271° | - | - |
| 1777981202 | 13.89° C | 78% | 1007.8 hPa | - | 0.89 m/s, 323° | - | - |
| 1777980902 | 13.89° C | 78% | 1007.9 hPa | - | 0.89 m/s, 330° | - | - |
| 1777980602 | 13.89° C | 79% | 1007.9 hPa | - | 0 m/s | - | - |
* Rain since midnight (hover to see other rain measurements)
** Current wind speed in m/s (hover to see current wind gust speed)